Track COSMOS 2508 now! 10-day predictions COSMOS 2508 is classified as:
1 40922U 15050C 25182.89173028 .00000045 00000-0 25241-3 0 9990 2 40922 82.4891 296.4560 0015412 89.2168 271.0678 12.42920236443362